EN

Hourly Weather Amelia

Today, 19 January, Tuesday

Time Temperature Precipitation Wind Pressure Humidity
00:00 +1°C° 0 mm 1 mps 742 mmHg 81%
01:00 +1°C° 0 mm 1 mps 742 mmHg 81%
02:00 +1°C° 0 mm 1 mps 742 mmHg 80%
03:00 +1°C° 0 mm 1 mps 742 mmHg 80%
04:00 +1°C° 0 mm 1 mps 742 mmHg 79%
05:00 +1°C° 0 mm 1 mps 742 mmHg 80%
06:00 +1°C° 0 mm 1 mps 742 mmHg 80%
07:00 +1°C° 0 mm 1 mps 742 mmHg 80%
08:00 +3°C° 0 mm 1 mps 742 mmHg 76%
09:00 +5°C° 0 mm 1 mps 743 mmHg 71%
10:00 +6°C° 0 mm 1 mps 743 mmHg 67%
11:00 +8°C° 0 mm 1 mps 743 mmHg 66%
12:00 +8°C° 0 mm 2 mps 742 mmHg 65%
13:00 +9°C° 0 mm 2 mps 742 mmHg 63%
14:00 +8°C° 0 mm 2 mps 742 mmHg 67%
15:00 +8°C° 0 mm 2 mps 742 mmHg 71%
16:00 +7°C° 0 mm 2 mps 741 mmHg 75%
17:00 +6°C° 0 mm 2 mps 741 mmHg 77%
18:00 +6°C° 0 mm 2 mps 741 mmHg 78%
19:00 +5°C° 0 mm 2 mps 741 mmHg 80%
20:00 +5°C° 0 mm 2 mps 741 mmHg 81%
21:00 +4°C° 0 mm 2 mps 741 mmHg 83%
22:00 +4°C° 0 mm 2 mps 741 mmHg 85%
23:00 +4°C° 0 mm 2 mps 741 mmHg 86%

Tomorrow, 20 January, Wednesday

Time Temperature Precipitation Wind Pressure Humidity
00:00 +4°C° 0 mm 2 mps 741 mmHg 87%
01:00 +4°C° 0 mm 2 mps 741 mmHg 88%
02:00 +4°C° 0.1 mm 2 mps 741 mmHg 89%
03:00 +4°C° 0.1 mm 2 mps 740 mmHg 90%
04:00 +5°C° 0.1 mm 2 mps 740 mmHg 92%
05:00 +5°C° 0.2 mm 2 mps 740 mmHg 92%
06:00 +5°C° 0.2 mm 2 mps 740 mmHg 93%
07:00 +5°C° 0.2 mm 2 mps 740 mmHg 94%
08:00 +5°C° 0.1 mm 2 mps 740 mmHg 92%
09:00 +6°C° 0.1 mm 2 mps 740 mmHg 90%
10:00 +6°C° 0.1 mm 2 mps 740 mmHg 89%
11:00 +7°C° 0.1 mm 2 mps 739 mmHg 88%
12:00 +7°C° 0.1 mm 2 mps 739 mmHg 87%
13:00 +8°C° 0.1 mm 3 mps 739 mmHg 86%
14:00 +8°C° 0.1 mm 3 mps 738 mmHg 87%
15:00 +8°C° 0.1 mm 2 mps 738 mmHg 87%
16:00 +8°C° 0.1 mm 2 mps 738 mmHg 88%
17:00 +8°C° 0 mm 2 mps 737 mmHg 88%
18:00 +7°C° 0 mm 2 mps 737 mmHg 88%
19:00 +7°C° 0 mm 2 mps 737 mmHg 88%
20:00 +7°C° 0 mm 2 mps 737 mmHg 89%
21:00 +7°C° 0 mm 2 mps 737 mmHg 91%
22:00 +7°C° 0 mm 3 mps 736 mmHg 92%
23:00 +7°C° 0 mm 3 mps 736 mmHg 93%

Day after tomorrow, 21 January, Thursday

Time Temperature Precipitation Wind Pressure Humidity
00:00 +7°C° 0 mm 3 mps 736 mmHg 93%
01:00 +7°C° 0 mm 3 mps 736 mmHg 94%
02:00 +7°C° 0 mm 3 mps 735 mmHg 94%
03:00 +7°C° 0 mm 3 mps 735 mmHg 94%
04:00 +7°C° 0 mm 3 mps 734 mmHg 94%
05:00 +7°C° 0 mm 3 mps 734 mmHg 94%
06:00 +8°C° 0 mm 3 mps 734 mmHg 93%
07:00 +8°C° 0 mm 3 mps 734 mmHg 93%
08:00 +8°C° 0.2 mm 3 mps 734 mmHg 91%
09:00 +8°C° 0.2 mm 4 mps 734 mmHg 89%
10:00 +10°C° 0.2 mm 4 mps 734 mmHg 87%
11:00 +10°C° 0.3 mm 4 mps 733 mmHg 84%
12:00 +10°C° 0.3 mm 5 mps 733 mmHg 81%
13:00 +12°C° 0.3 mm 5 mps 733 mmHg 77%
14:00 +12°C° 0.1 mm 5 mps 733 mmHg 79%
15:00 +11°C° 0.1 mm 4 mps 733 mmHg 81%
16:00 +11°C° 0.1 mm 4 mps 732 mmHg 83%
17:00 +10°C° 0.2 mm 4 mps 732 mmHg 87%
18:00 +10°C° 0.2 mm 3 mps 732 mmHg 91%
19:00 +9°C° 0.2 mm 3 mps 732 mmHg 94%
20:00 +9°C° 0.3 mm 3 mps 732 mmHg 94%
21:00 +8°C° 0.3 mm 4 mps 732 mmHg 93%
22:00 +8°C° 0.3 mm 4 mps 732 mmHg 92%
23:00 +8°C° 0.1 mm 4 mps 731 mmHg 92%

22 January, Friday

Time Temperature Precipitation Wind Pressure Humidity
00:00 +8°C° 0.1 mm 4 mps 731 mmHg 92%
01:00 +8°C° 0.1 mm 4 mps 730 mmHg 92%
02:00 +8°C° 0.2 mm 4 mps 730 mmHg 93%
03:00 +8°C° 0.2 mm 4 mps 729 mmHg 94%
04:00 +8°C° 0.2 mm 4 mps 728 mmHg 95%
05:00 +8°C° 0.5 mm 5 mps 728 mmHg 94%
06:00 +8°C° 0.5 mm 5 mps 727 mmHg 94%
07:00 +9°C° 0.5 mm 6 mps 727 mmHg 93%
08:00 +9°C° 0.4 mm 6 mps 727 mmHg 91%
09:00 +10°C° 0.4 mm 7 mps 727 mmHg 88%
10:00 +10°C° 0.4 mm 7 mps 727 mmHg 86%
11:00 +10°C° 0.8 mm 7 mps 726 mmHg 85%
12:00 +10°C° 0.8 mm 7 mps 726 mmHg 84%
13:00 +10°C° 0.8 mm 7 mps 726 mmHg 84%
14:00 +10°C° 0.4 mm 7 mps 726 mmHg 83%
15:00 +10°C° 0.4 mm 7 mps 726 mmHg 81%
16:00 +9°C° 0.4 mm 7 mps 725 mmHg 80%
17:00 +9°C° 0.1 mm 6 mps 726 mmHg 83%
18:00 +8°C° 0.1 mm 5 mps 726 mmHg 86%
19:00 +8°C° 0.1 mm 4 mps 726 mmHg 88%
20:00 +7°C° 0.2 mm 4 mps 726 mmHg 90%
21:00 +8°C° 0.2 mm 3 mps 726 mmHg 92%
22:00 +8°C° 0.2 mm 3 mps 726 mmHg 93%
23:00 +8°C° 0.5 mm 3 mps 726 mmHg 93%

23 January, Saturday

Time Temperature Precipitation Wind Pressure Humidity
00:00 +7°C° 0.5 mm 3 mps 726 mmHg 94%
01:00 +7°C° 0.5 mm 2 mps 727 mmHg 94%
02:00 +7°C° 0.1 mm 2 mps 726 mmHg 94%
03:00 +7°C° 0.1 mm 2 mps 726 mmHg 94%
04:00 +8°C° 0.1 mm 1 mps 726 mmHg 94%
05:00 +7°C° 0 mm 1 mps 726 mmHg 94%
06:00 +7°C° 0 mm 1 mps 726 mmHg 94%
07:00 +7°C° 0 mm 1 mps 726 mmHg 95%
08:00 +7°C° 0.1 mm 1 mps 726 mmHg 93%
09:00 +8°C° 0.1 mm 1 mps 727 mmHg 91%
10:00 +8°C° 0.1 mm 0 mps 727 mmHg 89%
11:00 +9°C° 0.3 mm 2 mps 727 mmHg 83%
12:00 +10°C° 0.3 mm 3 mps 727 mmHg 77%
13:00 +10°C° 0.3 mm 4 mps 728 mmHg 71%
14:00 +10°C° 0 mm 4 mps 728 mmHg 72%
15:00 +9°C° 0 mm 3 mps 728 mmHg 74%
16:00 +9°C° 0 mm 3 mps 728 mmHg 75%
17:00 +8°C° 0 mm 2 mps 728 mmHg 78%
18:00 +7°C° 0 mm 2 mps 728 mmHg 81%
19:00 +7°C° 0 mm 1 mps 728 mmHg 85%
20:00 +6°C° 0 mm 2 mps 728 mmHg 85%
21:00 +6°C° 0 mm 2 mps 728 mmHg 85%
22:00 +5°C° 0 mm 3 mps 728 mmHg 86%
23:00 +7°C° 0.1 mm 3 mps 728 mmHg 88%

24 January, Sunday

Time Temperature Precipitation Wind Pressure Humidity
00:00 +6°C° 0.1 mm 4 mps 727 mmHg 90%
01:00 +6°C° 0.1 mm 4 mps 727 mmHg 92%
02:00 +7°C° 0.3 mm 4 mps 727 mmHg 92%
03:00 +7°C° 0.3 mm 4 mps 726 mmHg 91%
04:00 +8°C° 0.3 mm 5 mps 726 mmHg 91%
05:00 +8°C° 0.4 mm 4 mps 725 mmHg 92%
06:00 +7°C° 0.4 mm 4 mps 725 mmHg 93%
07:00 +7°C° 0.4 mm 4 mps 725 mmHg 93%
08:00 +8°C° 0.3 mm 5 mps 725 mmHg 92%
09:00 +9°C° 0.3 mm 6 mps 724 mmHg 90%
10:00 +10°C° 0.3 mm 6 mps 724 mmHg 89%
11:00 +10°C° 0.7 mm 7 mps 724 mmHg 86%
12:00 +10°C° 0.7 mm 7 mps 724 mmHg 83%
13:00 +10°C° 0.7 mm 8 mps 724 mmHg 80%
14:00 +10°C° 0.9 mm 7 mps 724 mmHg 81%
15:00 +9°C° 0.9 mm 6 mps 724 mmHg 82%
16:00 +8°C° 0.9 mm 5 mps 724 mmHg 83%
17:00 +7°C° 0.2 mm 4 mps 724 mmHg 84%
18:00 +7°C° 0.2 mm 2 mps 724 mmHg 86%
19:00 +7°C° 0.2 mm 1 mps 725 mmHg 87%
20:00 +7°C° 0.1 mm 1 mps 725 mmHg 88%
21:00 +7°C° 0.1 mm 1 mps 726 mmHg 89%
22:00 +8°C° 0.1 mm 1 mps 726 mmHg 89%
23:00 +7°C° 0 mm 1 mps 727 mmHg 91%
Show more